Simultaneous Nadir Overpasses (SNOs) Predictions

Prediction of SNOs between NOAA-19 and METOP-C Satellite Orbit:

Table of predicted SNOs for the next 14.0 days since TLE Epoch: 5/4/2024
Index Date (NOAA-19) Time (NOAA-19) Lat,Lon (NOAA-19) SZA (NOAA-19 ) Date (METOP-C) Time (METOP-C) Lat,Lon (METOP-C) SZA (METOP-C ) Distance(km) Time Diff (sec)
1 05/09/2024 11:31:44 -80.05,-150.26 116.68 05/09/2024 11:32:50 -80.04,-150.36 116.68 1.91 66
2 05/09/2024 12:22:37 80.08, 17.45 63.38 05/09/2024 12:23:30 80.08, 17.33 63.38 2.51 53
3 05/09/2024 13:13:39 -80.13,-174.78 116.56 05/09/2024 13:14:09 -80.12,-174.91 116.57 2.58 30
4 05/09/2024 14:04:32 80.16, -7.06 63.50 05/09/2024 14:04:49 80.15, -7.22 63.48 3.20 17
5 05/09/2024 14:55:34 -80.20, 160.71 116.44 05/09/2024 14:55:28 -80.19, 160.55 116.46 3.26 6
6 05/09/2024 15:46:29 80.19, -32.20 63.53 05/09/2024 15:46:09 80.19, -32.06 63.54 2.72 20
7 05/09/2024 16:37:31 -80.22, 135.58 116.41 05/09/2024 16:36:48 -80.23, 135.71 116.40 2.59 43



Historial Predications of SNOs between NOAA-19 and METOP-C
